Flag for Switzerland Weather past 2 weeks in Montreux, Vaud, Switzerland

Now
89 °F

Hot.


Feels Like: 91 °F
Forecast: 63 / 88 °F
Wind: 7 mph from Northwest

Location: Aigle

Current Time: Jul 6, 2015 at 5:47:36 PM

Latest Report: Jul 6, 2015 at 5:00 PM


Visibility: N/A

Pressure: 29.97 "Hg

Humidity: 42%

Dew point: 64 °F

Location of MontreuxLocation

Historic Weather in Montreux — Graph

°F

Montreux temperature yesterday

Maximum temperature yesterday: 97 °F (at 7:00 PM)
Minimum temperature yesterday: 66 °F (at 6:00 AM)
Average temperature yesterday: 80 °F

Past Weeks' High & Low Weather Summary

 TemperatureHumidityPressure
High97 °F (Jul 5, 7:00 PM)97% (Jun 23, 7:00 AM)30.23 "Hg (Jun 23, 7:00 AM)
Low47 °F (Jun 24, 7:00 AM)16% (Jul 5, 7:00 PM)29.77 "Hg (Jun 22, 10:00 PM)
Average71 °F65%30.08 "Hg
* Reported Jun 21 4:00 PM — Jul 6 4:00 PM, Montreux, Weather by CustomWeather, © 2015

Note: Actual official high and low records may vary slightly from our data, if they occured in-between our weather recording intervals... More about our weather records

Advertising

Montreux weather history for previous 24 hours

 ConditionsComfort  
Time TempWeatherWind HumidityBarometerVisibility
4:00 PM
Mon, Jul 6
87 °FWarm.7 mph52%29.99 "HgN/A
3:00 PM87 °FWarm.9 mph58%30.01 "HgN/A
2:00 PM85 °FScattered clouds.12 mph53%30.04 "Hg12 mi
1:00 PM84 °FWarm.12 mph58%30.06 "HgN/A
12:00 PM83 °FWarm.10 mph63%30.07 "HgN/A
11:00 AM82 °FPassing clouds.8 mph62%30.08 "Hg11 mi
10:00 AM80 °FWarm.No wind67%30.09 "HgN/A
9:00 AM78 °FWarm.2 mph64%30.11 "HgN/A
8:00 AM74 °FPassing clouds.1 mph74%30.11 "Hg11 mi
7:00 AM67 °FMild.No wind88%30.13 "HgN/A
6:00 AM65 °FMild.3 mph89%30.13 "HgN/A
5:00 AM69 °FPassing clouds.1 mph80%30.11 "Hg9 mi
4:00 AM66 °FMild.1 mph87%30.11 "HgN/A
3:00 AM72 °FMild.No wind72%30.09 "HgN/A
2:00 AM72 °FMild.2 mph75%30.08 "HgN/A
1:00 AM74 °FMild.1 mph66%30.06 "HgN/A
12:00 AM76 °FMild.3 mph61%30.04 "HgN/A
11:00 PM
Sun, Jul 5
75 °FMild.1 mph68%30.03 "HgN/A
10:00 PM77 °FMild.2 mph66%29.99 "HgN/A
9:00 PM80 °FWarm.2 mph55%29.95 "HgN/A
8:00 PM90 °FScattered clouds.3 mph39%29.91 "Hg11 mi
7:00 PM97 °FExtremely hot.7 mph16%29.89 "HgN/A
6:00 PM89 °FHot.10 mph38%29.90 "HgN/A
5:00 PM89 °FPassing clouds.13 mph43%29.90 "Hg12 mi
Weather by CustomWeather, © 2015

See weather overviewHow to use our weather pages